Morrisville, VT

7:16 AM EST on February 27, 2017 (GMT -0500)
Morrisville Stowe State

Weather History for KMVL - July, 2013

Change the Weather History Date:

Monday, July 22, 2013

  Actual Average Record
Temperature  
Mean Temperature 73 °F 68 °F  
Max Temperature 81 °F 80 °F 93 °F (2011)
Min Temperature 64 °F 56 °F 46 °F (1996)
Degree Days  
Heating Degree Days 0 1  
Month to date heating degree days 0 23  
Since 1 June heating degree days 130 146  
Since 1 July heating degree days 0 23  
Cooling Degree Days 8 4  
Month to date cooling degree days 166 81  
Year to date cooling degree days 262 137  
Since 1 June cooling degree days 242 129  
Growing Degree Days 22 (Base 50)    
Moisture  
Dew Point 62 °F    
Average Humidity 68    
Maximum Humidity 84    
Minimum Humidity 52    
Precipitation  
Precipitation T in 0.13 in 0.67 in (2016)
Month to date precipitation 4.45 3.06  
Year to date precipitation 25.08 18.66  
Sea Level Pressure  
Sea Level Pressure 29.98 in    
Wind  
Wind Speed 3 mph (SSW)    
Max Wind Speed 6 mph    
Max Gust Speed -    
Visibility 10 miles    
Events Rain    
T = Trace of Precipitation, MM = Missing Value Source: NWS Daily Summary

Daily Weather History Graph

Daily Weather History Graph

Search for Another Location

Airport or City:

Trip Planner

Search our weather history database for the weather conditions in past years. The results will help you decide how hot, cold, wet, or windy it might be!

Date:

Astronomy

Jul. 22, 2013 Rise Set
Actual Time 5:26 AM EDT 8:26 PM EDT
Civil Twilight 4:52 AM EDT 9:01 PM EDT
Nautical Twilight 4:07 AM EDT 9:45 PM EDT
Astronomical Twilight 3:14 AM EDT 10:37 PM EDT
Moon 8:06 PM EDT (7/22) 5:22 AM EDT (7/22)
Length of Visible Light 16h 09m
Length of Day
14h 59m
Full, 100% of the Moon is Illuminated
Jul 22
Full
Jul 22
Full
Jul 29
Last Quarter
Aug 6
New
Aug 14
First Quarter

Hourly Weather History & Observations

Time (EDT) Temp. Heat Index Dew Point Humidity Pressure Visibility Wind Dir Wind Speed Gust Speed Precip Events Conditions
12:54 AM - - - N/A% 30.07 in - North - - N/A   Unknown
1:54 AM - - - N/A% 30.07 in - North - - N/A   Unknown
2:54 AM - - - N/A% 30.06 in - North - - N/A   Unknown
3:54 AM - - - N/A% 30.06 in - North - - N/A   Unknown
4:54 AM - - - N/A% 30.06 in - North - - N/A   Unknown
5:54 AM - - - N/A% 30.06 in - North - - N/A   Unknown
6:54 AM - - - N/A% 30.07 in - North - - N/A   Unknown
7:54 AM - - - N/A% 30.07 in - North - - N/A   Unknown
8:54 AM 64.0 °F - 55.0 °F 73% 30.05 in 10.0 mi Calm Calm - N/A   Unknown
9:54 AM 66.9 °F - 54.0 °F 63% 30.04 in 10.0 mi Calm Calm - N/A   Unknown
10:54 AM 70.0 °F - 53.1 °F 55% 30.03 in 10.0 mi Calm Calm - N/A   Scattered Clouds
11:54 AM 73.0 °F - 55.9 °F 55% 30.02 in 10.0 mi SSW 3.5 mph - N/A   Scattered Clouds
12:54 PM 75.9 °F - 59.0 °F 56% 30.01 in 10.0 mi Variable 4.6 mph - N/A   Partly Cloudy
1:54 PM 78.1 °F - 59.0 °F 52% 29.98 in 10.0 mi SSW 5.8 mph - N/A   Clear
2:54 PM 79.0 °F - 61.0 °F 54% 29.97 in 10.0 mi Variable 3.5 mph - N/A   Clear
3:54 PM 80.1 °F 81.2 °F 62.1 °F 54% 29.94 in 10.0 mi Variable 5.8 mph - N/A   Partly Cloudy
4:54 PM 81.0 °F 82.2 °F 63.0 °F 54% 29.92 in 10.0 mi Calm Calm - N/A   Partly Cloudy
5:54 PM 80.1 °F 81.9 °F 64.9 °F 60% 29.90 in 10.0 mi Variable 5.8 mph - N/A   Mostly Cloudy
6:54 PM 78.1 °F - 66.0 °F 66% 29.90 in 10.0 mi Variable 5.8 mph - N/A   Scattered Clouds
7:54 PM 75.0 °F - 66.0 °F 73% 29.90 in 10.0 mi South 3.5 mph - N/A   Mostly Cloudy
8:54 PM 73.0 °F - 64.9 °F 76% 29.90 in 10.0 mi Variable 3.5 mph - N/A   Scattered Clouds
9:54 PM 72.0 °F - 64.9 °F 78% 29.91 in 10.0 mi Variable 3.5 mph - N/A   Partly Cloudy
10:54 PM 71.1 °F - 66.0 °F 84% 29.89 in 10.0 mi South 3.5 mph - N/A   Partly Cloudy
11:15 PM 71.6 °F - 66.2 °F 83% 29.90 in 10.0 mi Calm Calm - N/A   Mostly Cloudy
11:28 PM 69.8 °F - 66.2 °F 88% 29.89 in 10.0 mi South 3.5 mph - N/A   Mostly Cloudy
11:54 PM 69.1 °F - 66.0 °F 90% 29.88 in 10.0 mi Calm Calm - 0.00 in Rain Light Rain